1484802000.59,32598,6.0,73878.0,-14.89,-47.17,-47.37,0,*63
1484802001.8,32599,6.06,73880.3,-14.85,-47.17,-47.31,0,*68
1484802003.04,32600,6.06,73878.0,-14.89,-46.89,-47.17,0,*65
1484802004.25,32601,6.06,73876.5,-14.85,-46.75,-47.09,0,*64
1484802005.49,32602,6.06,73878.8,-14.85,-46.89,-47.31,0,*6F
1484802006.7,32603,6.06,73878.8,-14.89,-46.75,-47.17,0,*65
1484802007.92,32604,6.06,73882.3,-14.89,-46.55,-46.97,0,*69
1484802009.13,32605,6.0,73878.8,-14.89,-46.75,-47.09,0,*6C
1484802010.34,32606,6.06,73876.5,-14.89,-46.75,-47.17,0,*60
1484802011.58,32607,6.06,73880.0,-14.89,-46.89,-47.17,0,*62
1484802012.82,32608,6.0,73876.5,-14.85,-46.89,-47.17,0,*61
1484802014.05,32609,6.06,73880.5,-14.85,-46.89,-47.17,0,*60
1484802015.3,32610,6.06,73880.8,-14.89,-46.89,-47.17,0,*64
1484802016.51,32611,6.06,73880.8,-14.85,-46.97,-47.17,0,*66
1484802017.75,32612,6.06,73876.8,-14.89,-46.89,-47.17,0,*66
1484802019.0,32613,6.06,73878.3,-14.89,-46.89,-46.97,0,*6E
1484802020.21,32614,6.06,73876.5,-14.89,-46.75,-47.09,0,*6C
1484802021.43,32615,6.06,73880.3,-14.89,-46.97,-47.17,0,*6E
1484802022.66,32616,6.0,73876.8,-14.85,-46.89,-47.17,0,*6E
1484802023.89,32617,6.06,73882.0,-14.89,-46.97,-47.31,0,*68
1484802025.1,32618,6.06,73882.0,-14.89,-46.75,-47.17,0,*6F
1484802026.34,32619,6.06,73878.8,-14.89,-46.89,-47.17,0,*6D
1484802027.58,32620,6.0,73878.3,-14.89,-46.69,-47.17,0,*69
1484802028.86,32621,6.06,73878.8,-14.91,-46.61,-47.03,0,*6C
1484802030.07,32622,6.06,73882.3,-14.89,-46.75,-47.09,0,*69
1484802031.28,32623,6.06,73878.5,-14.89,-46.75,-47.17,0,*67
1484802032.51,32624,6.06,73880.3,-14.89,-46.69,-47.17,0,*6D
1484802033.72,32625,6.06,73880.5,-14.85,-46.55,-47.09,0,*60
1484802034.96,32626,6.06,73876.5,-14.89,-46.69,-47.09,0,*60
1484802036.17,32627,6.06,73880.5,-14.89,-46.75,-46.97,0,*6A
1484802037.41,32628,6.0,73874.8,-14.89,-46.69,-46.97,0,*68
1484802038.65,32629,6.06,73878.5,-14.89,-46.69,-47.09,0,*6F
1484802039.89,32630,6.0,73878.3,-14.89,-46.69,-47.09,0,*67
1484802041.1,32631,6.06,73880.5,-14.89,-46.75,-47.09,0,*6B
1484802042.36,32632,6.0,73876.5,-14.91,-46.97,-47.23,0,*65
1484802043.6,32633,6.06,73878.3,-14.91,-46.83,-47.17,0,*66
1484802044.81,32634,6.06,73882.5,-14.89,-46.75,-47.17,0,*61
1484802046.06,32635,6.06,73880.8,-14.89,-46.89,-47.17,0,*63
1484802047.32,32636,6.06,73878.0,-14.91,-46.83,-47.23,0,*64
1484802048.53,32637,6.06,73876.0,-14.89,-46.75,-47.17,0,*62
1484802049.8,32638,6.06,73876.5,-14.91,-46.97,-47.23,0,*6F
1484802051.06,32639,6.06,73876.0,-14.91,-46.75,-47.03,0,*60
1484802052.33,32640,6.06,73878.8,-14.89,-46.49,-46.89,0,*6B
1484802053.56,32641,6.06,73878.0,-14.89,-46.69,-47.09,0,*61
1484802054.78,32642,6.06,73878.8,-14.89,-46.55,-46.75,0,*67
1484802056.02,32643,6.06,73876.3,-14.89,-46.69,-46.97,0,*65
1484802057.25,32644,6.0,73872.8,-14.91,-46.75,-47.17,0,*6F
1484802058.46,32645,6.0,73878.3,-14.89,-46.75,-47.09,0,*68
1484802059.67,32646,6.0,73876.0,-14.89,-46.75,-47.09,0,*6B
1484802060.88,32647,6.06,73878.3,-14.89,-46.75,-47.09,0,*6A
1484802062.12,32648,6.06,73882.3,-14.85,-46.69,-47.09,0,*64
1484802063.33,32649,6.06,73876.3,-14.89,-46.75,-47.09,0,*64
1484802064.54,32650,6.06,73876.0,-14.85,-46.97,-47.17,0,*63
1484802065.78,32651,6.06,73878.3,-14.89,-46.89,-47.31,0,*65
1484802067.0,32652,6.06,73880.0,-14.89,-46.97,-47.17,0,*6D
1484802068.24,32653,6.06,73878.0,-14.85,-46.89,-47.31,0,*6B
1484802069.53,32654,6.06,73878.8,-14.91,-47.03,-47.45,0,*69
1484802070.79,32655,6.0,73876.3,-14.93,-46.61,-46.97,0,*61
1484802072.05,32656,6.06,73878.5,-14.91,-46.75,-47.03,0,*69
1484802073.29,32657,6.0,73878.3,-14.91,-46.97,-47.17,0,*61
1484802074.52,32658,6.06,73878.8,-14.91,-46.75,-47.17,0,*62
1484802075.75,32659,6.06,73880.5,-14.93,-46.83,-47.17,0,*68
1484802077.02,32660,6.06,73880.8,-14.91,-46.97,-47.23,0,*62
1484802078.29,32661,6.06,73878.8,-14.91,-46.97,-47.37,0,*66
1484802079.52,32662,6.06,73880.5,-14.91,-46.75,-47.17,0,*6B
1484802080.76,32663,6.06,73876.8,-14.91,-46.83,-47.17,0,*63
1484802082.01,32664,6.06,73882.3,-14.91,-46.75,-47.03,0,*68
1484802083.28,32665,6.06,73880.0,-14.91,-46.97,-47.23,0,*67
1484802084.51,32666,6.06,73878.0,-14.91,-46.75,-47.17,0,*6F
1484802085.74,32667,6.0,73876.5,-14.93,-46.75,-47.17,0,*6C
1484802086.97,32668,6.0,73878.0,-14.91,-46.83,-47.17,0,*68
1484802088.2,32669,6.06,73876.8,-14.93,-46.75,-47.17,0,*62
1484802089.43,32670,6.06,73882.3,-14.91,-46.75,-47.17,0,*68
1484802090.67,32671,6.06,73880.0,-14.91,-46.75,-47.17,0,*69
1484802091.9,32672,6.0,73876.0,-14.93,-46.83,-47.17,0,*61
1484802093.19,32673,6.0,73874.8,-14.91,-47.03,-47.23,0,*6C
1484802094.48,32674,6.06,73876.5,-14.93,-47.03,-47.45,0,*69
1484802095.74,32675,6.0,73878.0,-14.93,-47.17,-47.45,0,*6D
1484802097.0,32676,6.06,73876.8,-14.93,-46.97,-47.37,0,*62
1484802098.27,32677,6.0,73876.3,-14.93,-46.97,-47.23,0,*66
1484802099.53,32678,6.0,73876.0,-14.91,-46.61,-47.17,0,*65
1484802100.75,32679,6.06,73880.0,-14.93,-46.75,-47.17,0,*63
1484802101.99,32680,6.06,73880.3,-14.93,-46.83,-47.17,0,*6C
1484802103.23,32681,6.0,73878.0,-14.93,-46.97,-47.17,0,*68
1484802104.51,32682,6.0,73878.3,-14.93,-47.03,-47.37,0,*65
1484802105.77,32683,6.06,73882.3,-14.93,-46.83,-47.23,0,*68
1484802107.03,32684,6.06,73880.3,-14.91,-46.61,-47.17,0,*66
1484802108.31,32685,6.06,73880.3,-14.93,-46.61,-47.03,0,*60
1484802109.57,32686,6.0,73878.8,-14.93,-47.03,-47.17,0,*63
1484802110.85,32687,6.06,73882.0,-14.93,-46.61,-47.03,0,*62
1484802112.1,32688,6.06,73880.5,-14.93,-46.61,-47.17,0,*68
1484802113.36,32689,6.0,73872.5,-14.93,-46.61,-47.17,0,*69
1484802114.62,32690,6.0,73876.8,-14.91,-46.21,-46.41,0,*65
1484802115.88,32691,6.06,73878.0,-14.93,-46.41,-46.75,0,*67
1484802117.12,32692,6.06,73878.8,-14.91,-46.55,-46.83,0,*6A
1484802118.38,32693,6.06,73876.5,-14.93,-46.21,-46.61,0,*66
1484802119.64,32694,6.06,73876.0,-14.93,-46.35,-46.61,0,*64
1484802120.9,32695,6.06,73878.8,-14.91,-45.95,-46.07,0,*6E
1484802122.14,32696,6.0,73878.3,-14.93,-46.21,-46.55,0,*64
1484802123.4,32697,6.06,73878.0,-14.91,-45.95,-46.07,0,*6C
1484802124.65,32698,6.06,73878.0,-14.91,-46.35,-46.35,0,*6B
1484802125.89,32699,6.06,73880.8,-14.91,-46.55,-46.83,0,*61
1484802127.11,32700,6.06,73878.5,-14.89,-46.35,-46.75,0,*66
1484802128.35,32701,6.0,73876.8,-14.85,-46.55,-46.89,0,*6E
1484802129.56,32702,6.06,73878.5,-14.89,-46.55,-46.97,0,*6E
1484802130.83,32703,6.06,73882.5,-14.89,-46.49,-46.89,0,*6D
1484802132.08,32704,6.0,73876.3,-14.89,-46.49,-46.75,0,*69
1484802133.34,32705,6.0,73878.0,-14.91,-46.61,-46.97,0,*67
1484802134.55,32706,6.0,73876.0,-14.89,-46.75,-46.97,0,*68
1484802135.77,32707,6.06,73882.0,-14.89,-46.55,-46.97,0,*6B
1484802137.01,32708,6.06,73880.8,-14.89,-46.69,-46.97,0,*6B
1484802138.22,32709,6.06,73884.3,-14.89,-46.55,-47.09,0,*63
1484802139.46,32710,6.0,73876.5,-14.85,-46.69,-46.97,0,*6E
1484802140.73,32711,6.06,73880.3,-14.91,-46.97,-47.23,0,*65
1484802141.97,32712,6.06,73880.3,-14.89,-46.89,-47.17,0,*67
1484802143.21,32713,6.06,73882.0,-14.91,-46.83,-47.17,0,*65
1484802144.44,32714,6.06,73880.8,-14.89,-46.69,-47.09,0,*60
1484802145.69,32715,6.0,73876.0,-14.89,-46.89,-47.09,0,*6F
1484802146.92,32716,6.0,73878.0,-14.89,-46.69,-47.09,0,*62
1484802148.14,32717,6.06,73880.8,-14.89,-46.55,-46.75,0,*66
1484802149.35,32718,6.06,73880.8,-14.89,-46.75,-47.17,0,*6E
1484802150.56,32719,6.06,73880.0,-14.89,-46.75,-47.17,0,*6F
1484802151.8,32720,6.06,73878.5,-14.91,-46.97,-47.17,0,*60
1484802153.04,32721,6.0,73876.5,-14.89,-46.69,-46.97,0,*60
1484802154.25,32722,6.06,73880.0,-14.89,-46.75,-47.09,0,*68
1484802155.47,32723,6.06,73878.5,-14.89,-46.97,-47.17,0,*6A
1484802156.73,32724,6.06,73878.5,-14.91,-46.75,-47.23,0,*6F
1484802157.97,32725,6.06,73880.5,-14.91,-46.97,-47.17,0,*65
1484802159.18,32726,6.0,73880.0,-14.89,-46.75,-47.09,0,*6C
1484802160.42,32727,6.06,73880.0,-14.89,-46.89,-47.17,0,*61
1484802161.66,32728,6.06,73880.5,-14.91,-46.83,-47.17,0,*6D
1484802162.94,32729,6.0,73876.0,-14.91,-47.03,-47.37,0,*67
1484802164.18,32730,6.06,73878.8,-14.91,-46.83,-47.17,0,*64
1484802165.41,32731,6.06,73880.0,-14.93,-46.75,-47.17,0,*6E
1484802166.7,32732,6.06,73876.3,-14.93,-47.03,-47.23,0,*6A
1484802167.96,32733,6.06,73878.8,-14.91,-47.17,-47.37,0,*69
1484802169.22,32734,6.06,73880.3,-14.93,-46.83,-47.23,0,*65
1484802170.5,32735,6.06,73880.0,-14.93,-47.03,-47.37,0,*68
1484802171.74,32736,6.06,73880.0,-14.89,-46.69,-47.09,0,*60
1484802173.01,32737,6.06,73882.5,-14.91,-46.97,-47.37,0,*64
1484802174.28,32738,6.06,73880.0,-14.91,-46.97,-47.23,0,*6E
1484802175.54,32739,6.06,73878.3,-14.91,-46.97,-47.23,0,*6F
1484802176.81,32740,6.06,73876.3,-14.93,-46.83,-47.23,0,*66
1484802178.08,32741,6.06,73880.8,-14.91,-46.61,-46.83,0,*62
1484802179.36,32742,6.06,73882.0,-14.91,-46.41,-46.61,0,*6F
1484802180.61,32743,6.06,73882.3,-14.91,-46.75,-47.03,0,*6C
1484802181.85,32744,6.06,73880.0,-14.91,-46.83,-47.17,0,*67
1484802183.08,32745,6.06,73878.5,-14.91,-46.75,-47.17,0,*6F
1484802184.31,32746,6.0,73878.0,-14.93,-46.75,-47.17,0,*6E
1484802185.6,32747,6.06,73880.0,-14.91,-47.03,-47.23,0,*6A
1484802186.86,32748,6.06,73878.0,-14.91,-46.75,-47.23,0,*65
1484802188.12,32749,6.0,73876.3,-14.93,-46.61,-46.97,0,*6D
1484802189.37,32750,6.06,73886.3,-14.91,-46.61,-47.17,0,*6E
1484802190.64,32751,6.06,73880.5,-14.91,-46.83,-47.03,0,*66
1484802191.88,32752,6.06,73882.5,-14.93,-46.55,-46.83,0,*65
1484802193.12,32753,6.0,73876.5,-14.91,-46.55,-46.83,0,*66
1484802194.36,32754,6.0,73876.5,-14.91,-46.55,-46.75,0,*68
1484802195.62,32755,6.06,73880.0,-14.93,-46.41,-46.75,0,*6E
1484802196.88,32756,6.0,73876.0,-14.91,-46.07,-46.35,0,*69
1484802198.12,32757,6.0,73876.8,-14.93,-46.35,-46.55,0,*6D
1484802199.4,32758,6.0,73872.3,-14.91,-46.41,-46.61,0,*64
1484802200.65,32759,6.0,73878.0,-14.89,-46.35,-46.69,0,*67
1484802201.89,32760,6.0,73874.8,-14.89,-46.35,-46.69,0,*6D
1484802203.14,32761,6.0,73876.3,-14.89,-46.27,-46.55,0,*60
1484802204.36,32762,6.06,73878.8,-14.89,-46.35,-46.55,0,*60
1484802205.6,32763,6.06,73876.8,-14.89,-46.49,-46.75,0,*68
1484802206.87,32764,6.06,73880.5,-14.89,-46.49,-46.69,0,*62
1484802208.12,32765,6.06,73882.3,-14.89,-46.35,-46.49,0,*6A
1484802209.36,32766,6.0,73874.5,-14.85,-46.35,-46.89,0,*69
1484802210.57,32767,6.0,73876.8,-14.85,-46.55,-46.75,0,*6D
1484802211.81,32768,6.0,73878.8,-14.85,-46.49,-46.75,0,*6F
1484802213.06,32769,6.06,73878.3,-14.89,-46.55,-46.89,0,*6C
1484802214.3,32770,6.06,73878.8,-14.89,-46.49,-46.75,0,*6A
1484802215.57,32771,6.0,73876.0,-14.85,-46.49,-46.89,0,*64
1484802216.81,32772,6.0,73878.0,-14.89,-46.49,-47.09,0,*62
1484802218.07,32773,6.06,73880.0,-14.85,-46.49,-46.89,0,*66
1484802219.31,32774,6.0,73876.0,-14.89,-46.69,-47.09,0,*66
1484802220.52,32775,6.06,73880.3,-14.85,-46.55,-46.97,0,*62
1484802221.76,32776,6.06,73878.3,-14.85,-46.49,-46.75,0,*60
1484802222.97,32777,6.0,73878.5,-14.85,-46.55,-46.97,0,*60
1484802224.21,32778,6.06,73880.8,-14.85,-46.27,-46.55,0,*64
1484802225.42,32779,6.06,73880.0,-14.85,-46.35,-46.97,0,*68
1484802226.66,32780,6.0,73880.0,-14.85,-46.69,-46.97,0,*67
1484802227.89,32781,6.0,73878.3,-14.85,-46.69,-47.09,0,*60
1484802229.09,32782,6.0,73878.0,-14.85,-46.75,-47.17,0,*61
1484802230.33,32783,6.0,73876.5,-14.89,-46.69,-46.97,0,*68
1484802231.57,32784,6.06,73878.3,-14.85,-46.55,-46.89,0,*63
1484802232.81,32785,6.06,73878.0,-14.85,-46.49,-46.75,0,*6C
1484802234.07,32786,6.0,73874.5,-14.85,-46.49,-46.89,0,*6C
1484802235.31,32787,6.06,73876.5,-14.85,-46.55,-46.89,0,*60
1484802236.54,32788,6.0,73878.3,-14.85,-46.55,-46.89,0,*6F
1484802237.81,32789,6.0,73876.0,-14.85,-46.49,-46.89,0,*63
1484802239.07,32790,6.06,73878.3,-14.85,-46.49,-46.89,0,*6B
1484802240.28,32791,6.06,73876.0,-14.85,-46.55,-47.09,0,*6E
1484802241.52,32792,6.0,73872.3,-14.85,-46.49,-46.75,0,*6A
1484802242.78,32793,6.06,73878.3,-14.85,-46.49,-46.89,0,*68
1484802244.01,32794,6.0,73876.8,-14.85,-46.69,-46.97,0,*62
1484802245.29,32795,6.06,73876.5,-14.85,-46.27,-46.49,0,*6A
1484802246.53,32796,6.06,73880.5,-14.85,-46.27,-46.55,0,*64
1484802247.73,32797,6.0,73876.0,-14.85,-46.75,-47.09,0,*6A
1484802249.01,32798,6.0,73874.3,-14.83,-46.41,-46.89,0,*6D
1484802250.23,32799,6.0,73878.3,-14.85,-46.35,-46.75,0,*6A
1484802251.5,32800,6.0,73874.3,-14.83,-46.41,-46.69,0,*6D
1484802252.78,32801,6.0,73878.0,-14.83,-46.49,-47.03,0,*69
1484802254.07,32802,6.06,73876.8,-14.83,-46.49,-47.03,0,*6A
1484802255.35,32803,6.06,73876.8,-14.83,-46.49,-47.03,0,*6B
1484802256.58,32804,6.0,73874.3,-14.85,-46.69,-46.97,0,*64
1484802257.84,32805,6.0,73876.3,-14.85,-46.49,-46.69,0,*66
1484802259.1,32806,6.0,73876.5,-14.83,-46.41,-46.83,0,*6F
1484802260.36,32807,6.06,73878.5,-14.83,-46.83,-47.03,0,*69
1484802261.64,32808,6.06,73880.5,-14.83,-46.49,-47.03,0,*60
1484802262.93,32809,6.06,73878.3,-14.83,-46.49,-46.89,0,*62
1484802264.22,32810,6.0,73882.3,-14.83,-46.49,-46.89,0,*6A
1484802265.49,32811,6.06,73882.5,-14.83,-46.41,-46.69,0,*6D
1484802266.75,32812,6.06,73880.0,-14.81,-46.41,-46.61,0,*64
1484802268.02,32813,6.06,73882.0,-14.83,-46.69,-47.03,0,*68
1484802269.31,32814,6.0,73876.0,-14.83,-46.89,-47.23,0,*63
1484802270.59,32815,6.0,73880.0,-14.83,-46.49,-47.03,0,*6C
1484802271.83,32816,6.06,73878.5,-14.83,-46.83,-47.09,0,*63
1484802273.06,32817,6.0,73878.3,-14.83,-46.83,-47.09,0,*62
1484802274.27,32818,6.06,73880.8,-14.85,-46.55,-47.09,0,*60
1484802275.55,32819,6.06,73882.3,-14.83,-46.69,-47.03,0,*62
1484802276.8,32820,6.0,73876.0,-14.83,-46.69,-47.09,0,*62
1484802278.09,32821,6.0,73878.0,-14.83,-46.69,-46.89,0,*6A
1484802279.32,32822,6.06,73878.5,-14.83,-46.83,-47.09,0,*64
1484802280.61,32823,6.0,73876.3,-14.83,-46.49,-46.89,0,*6A
1484802281.89,32824,6.0,73878.3,-14.83,-46.61,-47.03,0,*64
1484802283.16,32825,6.0,73874.0,-14.83,-46.61,-47.03,0,*65
1484802284.44,32826,6.06,73882.0,-14.83,-46.69,-47.03,0,*6E
1484802285.72,32827,6.06,73878.8,-14.83,-46.61,-46.89,0,*64
1484802287.0,32828,6.0,73876.5,-14.83,-46.61,-47.03,0,*68
1484802288.28,32829,6.0,73874.8,-14.83,-46.41,-46.69,0,*66
1484802289.54,32830,6.0,73874.5,-14.83,-46.41,-46.83,0,*6A
1484802290.82,32831,6.0,73876.3,-14.83,-46.27,-46.61,0,*67
1484802292.11,32832,6.0,73878.0,-14.83,-46.49,-46.89,0,*6A
1484802293.38,32833,6.0,73876.3,-14.83,-46.49,-46.83,0,*61
1484802294.66,32834,6.0,73874.0,-14.83,-46.41,-46.69,0,*6A
1484802295.92,32835,6.0,73874.8,-14.83,-46.41,-46.83,0,*6F
1484802297.2,32836,6.0,73872.3,-14.83,-46.41,-46.89,0,*66
1484802298.47,32837,6.0,73878.5,-14.83,-46.41,-46.69,0,*69
1484802299.71,32838,6.0,73874.3,-14.81,-46.41,-46.83,0,*60
1484802300.99,32839,6.0,73872.5,-14.83,-46.41,-46.89,0,*69
1484802302.27,32840,6.06,73878.0,-14.83,-46.61,-46.89,0,*65
1484802303.55,32841,6.06,73876.0,-14.83,-46.69,-47.03,0,*6F
1484802304.79,32842,6.0,73874.3,-14.83,-46.83,-47.09,0,*62
1484802306.05,32843,6.0,73874.0,-14.83,-46.89,-47.09,0,*69
1484802307.33,32844,6.06,73878.5,-14.83,-46.61,-46.89,0,*61
1484802308.59,32845,6.0,73874.8,-14.81,-46.41,-46.89,0,*60
1484802309.87,32846,6.06,73880.0,-14.83,-46.69,-47.03,0,*68
1484802311.14,32847,6.0,73878.3,-14.83,-46.41,-46.69,0,*6E
1484802312.41,32848,6.06,73876.8,-14.81,-46.27,-46.69,0,*63
1484802313.69,32849,6.0,73876.3,-14.83,-46.27,-46.69,0,*60
1484802314.96,32850,6.0,73878.0,-14.83,-46.21,-46.49,0,*6C
1484802316.2,32851,6.06,73878.3,-14.81,-46.01,-46.27,0,*65
1484802317.46,32852,6.0,73872.0,-14.81,-46.07,-46.41,0,*60
1484802318.69,32853,6.0,73872.5,-14.81,-45.81,-46.21,0,*6A
1484802319.95,32854,6.0,73876.5,-14.81,-46.27,-46.41,0,*64
1484802321.22,32855,6.0,73878.3,-14.81,-46.49,-46.89,0,*69
1484802322.45,32856,6.06,73878.8,-14.81,-46.41,-46.83,0,*68
1484802323.72,32857,6.0,73876.8,-14.81,-46.49,-46.69,0,*65
1484802324.97,32858,6.0,73872.3,-14.81,-46.41,-46.69,0,*62
1484802326.23,32859,6.0,73876.5,-14.81,-46.49,-47.03,0,*66
1484802327.49,32860,6.0,73876.8,-14.81,-46.49,-47.03,0,*6C
1484802328.75,32861,6.06,73880.0,-14.81,-46.49,-46.89,0,*6E
1484802329.99,32862,6.0,73876.0,-14.81,-46.61,-46.83,0,*6D
1484802331.23,32863,6.0,73878.3,-14.81,-46.41,-46.83,0,*6E
1484802332.48,32864,6.0,73878.5,-14.81,-46.41,-46.69,0,*6D
1484802333.72,32865,6.0,73876.3,-14.75,-46.55,-46.75,0,*6F
1484802334.95,32866,6.0,73878.3,-14.79,-46.83,-46.97,0,*67
1484802336.22,32867,6.06,73882.3,-14.79,-46.15,-46.35,0,*61
1484802337.46,32868,6.06,73878.5,-14.75,-46.35,-46.75,0,*64
1484802338.71,32869,6.06,73876.3,-14.79,-46.61,-46.97,0,*64
1484802339.97,32870,6.06,73876.5,-14.79,-46.35,-46.61,0,*64
1484802341.21,32871,6.0,73876.3,-14.79,-46.35,-46.75,0,*60
1484802342.47,32872,6.0,73878.8,-14.79,-46.41,-46.83,0,*69
1484802343.7,32873,6.0,73876.5,-14.79,-46.55,-46.97,0,*68
1484802344.99,32874,6.06,73878.5,-14.75,-46.27,-46.89,0,*69
1484802346.25,32875,6.06,73880.3,-14.79,-46.41,-46.83,0,*6E
1484802347.51,32876,6.0,73876.3,-14.79,-46.35,-46.61,0,*62
1484802348.77,32877,6.06,73878.5,-14.79,-46.21,-46.41,0,*64
1484802350.02,32878,6.0,73878.8,-14.79,-46.41,-46.75,0,*6A
1484802351.28,32879,6.0,73878.3,-14.79,-46.35,-46.61,0,*6D
1484802352.52,32880,6.0,73876.3,-14.79,-46.35,-46.83,0,*67
1484802353.78,32881,6.06,73882.8,-14.75,-46.49,-46.75,0,*68
1484802355.05,32882,6.0,73876.0,-14.75,-46.27,-46.55,0,*61
1484802356.29,32883,6.0,73878.8,-14.79,-46.55,-46.83,0,*62
1484802357.53,32884,6.06,73880.0,-14.75,-46.35,-46.75,0,*66
1484802358.8,32885,6.0,73876.8,-14.79,-46.41,-46.61,0,*6D
1484802360.06,32886,6.06,73882.5,-14.79,-46.41,-46.97,0,*67
1484802361.3,32887,6.0,73878.0,-14.79,-46.35,-46.83,0,*60
1484802362.56,32888,6.0,73878.3,-14.75,-46.27,-46.75,0,*69
1484802363.82,32889,6.0,73878.8,-14.79,-46.35,-46.61,0,*62
1484802365.08,32890,6.06,73876.5,-14.79,-46.41,-46.75,0,*6C
1484802366.31,32891,6.0,73876.5,-14.79,-46.35,-46.75,0,*6E
1484802367.57,32892,6.06,73878.8,-14.79,-46.21,-46.41,0,*6F
1484802368.84,32893,6.0,73876.5,-14.75,-46.27,-46.55,0,*61
1484802370.11,32894,6.0,73878.8,-14.79,-46.41,-46.61,0,*6D
1484802371.37,32895,6.0,73878.5,-14.79,-46.35,-46.61,0,*6F
1484802372.66,32896,6.0,73878.0,-14.75,-46.07,-46.15,0,*62
1484802373.92,32897,6.0,73876.0,-14.75,-46.55,-46.89,0,*61
1484802375.18,32898,6.06,73878.5,-14.75,-46.49,-46.75,0,*60
1484802376.44,32899,6.0,73876.5,-14.79,-46.41,-46.75,0,*65
1484802377.7,32900,6.0,73876.0,-14.75,-46.35,-46.89,0,*68
1484802378.96,32901,6.0,73878.3,-14.75,-46.75,-46.89,0,*6D
1484802380.24,32902,6.0,73878.0,-14.75,-46.69,-46.89,0,*63
1484802381.48,32903,6.0,73876.8,-14.75,-46.55,-46.97,0,*62
1484802382.73,32904,6.0,73876.8,-14.75,-46.69,-46.97,0,*6A
1484802383.97,32905,6.06,73878.5,-14.75,-46.35,-46.97,0,*62
1484802385.23,32906,6.0,73872.8,-14.75,-46.55,-46.89,0,*68
1484802386.46,32907,6.0,73876.3,-14.79,-46.75,-47.17,0,*61
1484802387.71,32908,6.0,73878.3,-14.79,-46.83,-47.03,0,*62
1484802388.94,32909,6.06,73882.5,-14.75,-46.75,-46.97,0,*6A
1484802390.2,32910,6.06,73878.8,-14.75,-46.69,-46.97,0,*6F
1484802391.46,32911,6.06,73880.0,-14.79,-46.61,-46.97,0,*6A
1484802392.68,32912,6.0,73878.0,-14.75,-46.75,-47.17,0,*69
1484802393.92,32913,6.0,73874.5,-14.79,-46.55,-46.97,0,*6F
1484802395.18,32914,6.0,73878.3,-14.79,-46.61,-46.97,0,*6F
1484802396.43,32915,6.0,73878.8,-14.75,-46.55,-46.89,0,*6A
1484802397.72,32916,6.0,73876.3,-14.75,-46.69,-46.89,0,*66
1484802398.95,32917,6.06,73880.3,-14.75,-46.75,-47.09,0,*63
1484802400.18,32918,6.0,73876.0,-14.75,-46.35,-46.75,0,*62
1484802401.42,32919,6.0,73876.5,-14.75,-46.35,-46.55,0,*61
1484802402.68,32920,6.0,73878.3,-14.79,-46.61,-46.97,0,*68
1484802403.92,32921,6.0,73876.3,-14.75,-46.55,-46.75,0,*6E
1484802405.17,32922,6.0,73876.5,-14.75,-46.69,-46.97,0,*6E
1484802406.44,32923,6.0,73874.3,-14.79,-46.61,-46.83,0,*6E
1484802407.67,32924,6.06,73880.0,-14.75,-46.55,-46.97,0,*67
1484802408.96,32925,6.0,73874.8,-14.75,-46.49,-46.89,0,*64
1484802410.21,32926,6.0,73874.5,-14.75,-46.69,-47.09,0,*6C
1484802411.49,32927,6.06,73880.3,-14.79,-46.41,-46.61,0,*64
1484802412.74,32928,6.0,73876.5,-14.79,-46.75,-47.03,0,*69
1484802413.97,32929,6.06,73882.8,-14.75,-46.75,-47.09,0,*6E
1484802415.2,32930,6.0,73872.5,-14.75,-46.55,-46.97,0,*62
1484802416.45,32931,6.0,73876.0,-14.79,-46.75,-47.03,0,*61
1484802417.74,32932,6.06,73878.8,-14.75,-46.49,-46.89,0,*62
1484802419.0,32933,6.06,73880.8,-14.75,-46.35,-46.69,0,*66
1484802420.25,32934,6.0,73878.0,-14.79,-46.61,-46.97,0,*6D
1484802421.49,32935,6.06,73880.8,-14.79,-46.55,-46.97,0,*6B
1484802422.75,32936,6.06,73878.5,-14.75,-46.89,-46.97,0,*65
1484802424.0,32937,6.0,73878.0,-14.79,-46.75,-47.03,0,*67
1484802425.25,32938,6.06,73882.0,-14.79,-46.41,-46.97,0,*63
1484802426.54,32939,6.0,73878.5,-14.75,-46.69,-46.89,0,*6B
1484802427.78,32940,6.06,73880.3,-14.75,-46.35,-46.75,0,*6F
1484802429.03,32941,6.0,73876.5,-14.79,-46.75,-47.03,0,*66
1484802430.31,32942,6.0,73876.8,-14.75,-46.49,-46.89,0,*65
1484802431.57,32943,6.0,73878.5,-14.75,-46.69,-46.97,0,*69
1484802432.8,32944,6.0,73876.0,-14.75,-46.75,-47.09,0,*65
1484802434.03,32945,6.06,73882.0,-14.79,-46.55,-46.97,0,*6C
1484802435.27,32946,6.0,73878.0,-14.79,-46.55,-46.97,0,*6F
1484802436.5,32947,6.06,73882.0,-14.75,-46.55,-46.75,0,*6E
1484802437.74,32948,6.0,73878.8,-14.75,-46.35,-46.75,0,*67
1484802439.03,32949,6.0,73876.5,-14.75,-46.49,-46.89,0,*6E
1484802440.29,32950,6.0,73878.8,-14.75,-46.49,-46.75,0,*65
1484802441.54,32951,6.06,73882.5,-14.79,-46.41,-46.97,0,*6C
1484802442.8,32952,6.0,73876.5,-14.79,-46.55,-46.89,0,*65
1484802444.04,32953,6.0,73880.3,-14.75,-46.35,-46.75,0,*6D
1484802445.28,32954,6.06,73880.3,-14.79,-46.35,-46.75,0,*66
1484802446.54,32955,6.06,73882.8,-14.75,-46.49,-46.75,0,*60
1484802447.8,32956,6.0,73880.0,-14.75,-46.49,-46.75,0,*63
1484802449.07,32957,6.06,73884.3,-14.75,-46.49,-46.75,0,*62
1484802450.35,32958,6.06,73886.3,-14.75,-46.27,-46.69,0,*68
1484802451.61,32959,6.06,73882.0,-14.79,-46.41,-46.75,0,*68
1484802452.87,32960,6.0,73882.5,-14.75,-46.27,-46.75,0,*6E
1484802454.16,32961,6.0,73878.3,-14.75,-46.15,-46.49,0,*61
1484802455.4,32962,6.0,73878.5,-14.75,-46.75,-46.97,0,*67
1484802456.66,32963,6.06,73880.5,-14.79,-46.97,-47.23,0,*68
1484802457.89,32964,6.0,73882.0,-14.75,-46.75,-47.17,0,*68
1484802459.12,32965,6.06,73880.8,-14.75,-46.97,-47.17,0,*65
1484802460.36,32966,6.06,73882.3,-14.75,-46.97,-47.09,0,*69
1484802461.62,32967,6.06,73884.5,-14.75,-46.89,-47.17,0,*68
1484802462.85,32968,6.0,73882.0,-14.75,-46.75,-47.09,0,*6B
1484802464.1,32969,6.06,73886.3,-14.75,-46.69,-46.97,0,*61
1484802465.38,32970,6.06,73880.8,-14.79,-46.61,-47.03,0,*61
1484802466.66,32971,6.06,73886.3,-14.79,-46.61,-47.03,0,*60
1484802467.92,32972,6.0,73878.8,-14.75,-46.55,-46.89,0,*6B
1484802469.18,32973,6.06,73880.3,-14.79,-46.61,-46.97,0,*6E
1484802470.41,32974,6.06,73882.0,-14.75,-46.75,-46.97,0,*60
1484802471.68,32975,6.0,73882.8,-14.79,-46.61,-47.03,0,*64
1484802472.91,32976,6.06,73880.5,-14.79,-46.75,-47.17,0,*67
1484802474.17,32977,6.0,73880.0,-14.75,-46.49,-46.75,0,*60
1484802475.43,32978,6.0,73878.8,-14.79,-46.61,-46.97,0,*65
1484802476.69,32979,6.0,73882.3,-14.79,-46.61,-46.97,0,*64
1484802477.94,32980,6.0,73882.5,-14.79,-46.61,-46.97,0,*62
1484802479.2,32981,6.0,73882.8,-14.75,-46.55,-46.89,0,*67
1484802480.46,32982,6.0,73876.8,-14.75,-46.55,-46.89,0,*64
1484802481.72,32983,6.0,73880.3,-14.75,-46.69,-46.97,0,*65
1484802482.98,32984,6.06,73886.8,-14.75,-46.69,-46.97,0,*62
1484802484.23,32985,6.06,73882.5,-14.75,-46.69,-47.09,0,*65
1484802485.48,32986,6.06,73884.0,-14.79,-46.75,-47.03,0,*6D
1484802486.72,32987,6.0,73880.8,-14.79,-46.83,-47.17,0,*60
1484802487.97,32988,6.0,73882.5,-14.79,-47.03,-47.31,0,*62
1484802489.23,32989,6.0,73882.3,-14.75,-46.69,-46.97,0,*6F
1484802490.47,32990,6.0,73882.8,-14.79,-46.55,-46.75,0,*68
1484802491.73,32991,6.06,73886.0,-14.75,-46.27,-46.55,0,*62
1484802492.97,32992,6.0,73880.5,-14.75,-46.35,-46.75,0,*60
1484802494.23,32993,6.0,73886.0,-14.75,-46.55,-46.89,0,*64
1484802495.46,32994,6.0,73884.3,-14.75,-46.75,-46.97,0,*6E
1484802496.72,32995,6.06,73886.3,-14.75,-46.69,-46.97,0,*62
1484802497.98,32996,6.0,73880.5,-14.75,-46.49,-46.97,0,*63
1484802499.24,32997,6.0,73884.0,-14.75,-46.89,-46.97,0,*6E
1484802500.5,32998,6.0,73882.0,-14.75,-46.89,-47.17,0,*68
1484802501.76,32999,6.06,73886.8,-14.75,-46.69,-46.97,0,*6E
1484802503.02,33000,6.0,73882.5,-14.75,-46.69,-46.97,0,*66